Regional Weather Roundup
Issued by NWS

Home | Current Version | Previous Version | Graphics & Text | Print | Product List | Glossary On
Versions: 1 2 3 4 5 6 7 8 9 10 11 12 13 14 15 16 17 18 19 20 21 22 23 24 25 26 27 28 29 30 31 32 33 34 35 36 37 38 39 40 41 42 43 44 45 46 47 48 49 50
552
ASUS45 KCYS 211910
RWRWY

WYOMING REGIONAL WEATHER ROUNDUP
NATIONAL WEATHER SERVICE CHEYENNE WY
100 PM MDT MON AUG 21 2017

NOTE:  "FAIR" INDICATES FEW OR NO CLOUDS BELOW 12,000 FEET
WITH NO SIGNIFICANT WEATHER AND/OR OBSTRUCTIONS TO VISIBILITY.

WYZ001-212000-
YELLOWSTONE NATIONAL PARK

CITY           SKY/WX    TMP DP  RH WIND       PRES   REMARKS
LK YELLOWSTONE   N/A     62  37  39 VRB5      30.38S
W YELLOWSTONE  NOT AVBL

$$
WYZ002>013-054>058-071-098>099-212000-
NORTHERN WYOMING

CITY           SKY/WX    TMP DP  RH WIND       PRES   REMARKS
JACKSON        FAIR      66  34  30 VRB6      30.30S
CODY           FAIR      70  38  31 N7        30.24R
GREYBULL       FAIR      77  35  21 CALM      30.14S
WORLAND        FAIR      75  36  24 N5        30.16R
SHERIDAN       FAIR      74  34  23 VRB3      30.20R
BUFFALO        FAIR      73  31  21 N7        30.25R
GILLETTE       FAIR      73  35  25 N15       30.19R
HULETT         FAIR      72  36  26 N10       30.20R
NEWCASTLE      FAIR      73  30  20 N9G21     30.17R

$$
WYZ014>020-022>026-101>103-212000-
CENTRAL WYOMING

CITY           SKY/WX    TMP DP  RH WIND       PRES   REMARKS
BIG PINEY      FAIR      72  38  29 VRB3      30.33R
PINEDALE       FAIR      73  23  15 NW7       30.33R
DUBOIS         FAIR      68  32  26 E9        30.31S
LANDER           N/A    N/A N/A N/A MISG      30.21S
RIVERTON       FAIR      72  35  25 VRB6      30.22R
CASPER         FAIR      75  36  24 NE10      30.22S
DOUGLAS        FAIR      77  39  25 N13       30.20S

$$
WYZ021-027>030-104>119-212000-
SOUTHERN WYOMING

CITY           SKY/WX    TMP DP  RH WIND       PRES   REMARKS
EVANSTON       FAIR      76  39  26 VRB3      30.33R
KEMMERER         N/A     75  32  20 W9        30.34R
FORT BRIDGER   FAIR      78  33  19 CALM      30.35R
ROCK SPRINGS   FAIR      76  33  21 VRB5      30.29S
RAWLINS        FAIR      78  34  20 VRB6      30.29S
SARATOGA       FAIR      75  34  22 N8        30.31S
LARAMIE        FAIR      74  36  25 NE13      30.30S
CHEYENNE       FAIR      73  35  25 N22G30    30.23R
TORRINGTON     FAIR      80  54  40 NE13      30.12R
PINE BLUFFS    FAIR      77  46  33 N17G28    30.18R

$$




USA.gov is the U.S. government's official web portal to all federal, state and local government web resources and services.